Webcam Flughafen St.Gallen-Altenrhein

Live-Bilder und Zeitraffer LSZR / ACH.

 

Live aus Altenrhein
LIVE
LSZR 241920Z AUTO 12005KT 070V150 CAVOK 10/09 Q1017
Zeitraffer heute
2020-10-24 00:14:44
LSZR 232150Z AUTO 11009KT 9999 OVC060 13/13 Q1017